Tracking 31013 objects as of 11-Jul-2025
HD Live streaming from Space Station
objects crossing your sky now

STARLINK-31404

Track STARLINK-31404 now!
10-day predictions


NORAD ID: 59521
Int'l Code: 2024-073L
Perigee: 489.5 km
Apogee: 490.9 km
Inclination: 43.0 °
Period: 94.3 minutes
Semi major axis: 6861 km
RCS: Unknown
Launch date: April 17, 2024
Source: United States (US)
Launch site: AIR FORCE EASTERN TEST RANGE (AFETR)
Your satellite tracking list
Your tracking list is empty




NASA's NSSDC Master Catalog

Two Line Element Set (TLE):
1 59521U 24073L   25192.16456145  .00000204  00000-0  16928-4 0  9995
2 59521  42.9986 242.3525 0001005 278.0102  82.0636 15.27568638 70453
Source of the keplerian elements: AFSPC